Weather History for DeKalb, IL

Change the Weather History Date:

Wednesday, March 6, 2013

  Actual Average (KARR) Record (KARR)
Temperature  
Mean Temperature 27 °F 33 °F  
Max Temperature 30 °F 42 °F 70 °F (2000)
Min Temperature 24 °F 23 °F 2 °F (2003)
Degree Days  
Heating Degree Days 38 32  
Month to date heating degree days 201  
Since 1 July heating degree days 5339  
Cooling Degree Days 0 0  
Month to date cooling degree days 0  
Year to date cooling degree days 0  
Moisture  
Dew Point 23 °F    
Average Humidity 83    
Maximum Humidity 86    
Minimum Humidity 79    
Precipitation  
Precipitation 0.00 in 0.07 in 0.13 in (2006)
Month to date precipitation 0.41  
Year to date precipitation 3.50  
Sea Level Pressure  
Sea Level Pressure 30.21 in    
Wind  
Wind Speed 14 mph (NW)    
Max Wind Speed 20 mph    
Max Gust Speed 25 mph    
Visibility 10 miles    
Events      
T = Trace of Precipitation, MM = Missing Value Source: NWS Daily Summary

Daily Weather History Graph

Daily Weather History Graph

Search for Another Location

Airport:

Trip Planner

Search our weather history database for the weather conditions in past years. The results will help you decide how hot, cold, wet, or windy it might be!

Date:

Astronomy

Mar. 06, 2013 Rise Set
Actual Time 6:21 AM CST 5:51 PM CST
Civil Twilight 5:53 AM CST 6:19 PM CST
Nautical Twilight 5:21 AM CST 6:51 PM CST
Astronomical Twilight 4:48 AM CST 7:24 PM CST
Moon 2:34 AM CST (3/6) 12:29 PM CST (3/6)
Length of Visible Light 12h 25m
Length of Day
11h 30m
Waning Crescent, 29% of the Moon is Illuminated
Mar 6
Waning Crescent
Mar 11
New
Mar 19
First Quarter
Mar 27
Full
Apr 2
Last Quarter

Hourly Weather History & Observations

Time (CST) Temp. Windchill Dew Point Humidity Pressure Visibility Wind Dir Wind Speed Gust Speed Precip Events Conditions
12:15 AM 25.3 °F 13.1 °F 21.7 °F 86% 30.01 in 10.0 mi NNW 15.0 mph 25.3 mph N/A   Overcast
12:35 AM 25.5 °F 12.4 °F 21.7 °F 86% 30.02 in 10.0 mi NNW 17.3 mph 24.2 mph N/A   Overcast
12:55 AM 25.7 °F 11.9 °F 21.2 °F 83% 30.04 in 10.0 mi NNW 19.6 mph 24.2 mph N/A   Overcast
1:15 AM 25.7 °F 13.5 °F 21.2 °F 83% 30.05 in 10.0 mi NNW 15.0 mph 23.0 mph N/A   Overcast
1:35 AM 25.7 °F 12.3 °F 21.2 °F 83% 30.06 in 10.0 mi NNW 18.4 mph 21.9 mph N/A   Overcast
1:55 AM 25.9 °F 12.9 °F 21.6 °F 84% 30.06 in 10.0 mi NNW 17.3 mph 23.0 mph N/A   Overcast
2:15 AM 25.7 °F 13.1 °F 21.6 °F 84% 30.07 in 10.0 mi NNW 16.1 mph 24.2 mph N/A   Overcast
2:35 AM 25.7 °F 13.1 °F 21.6 °F 84% 30.07 in 10.0 mi NNW 16.1 mph 23.0 mph N/A   Overcast
2:55 AM 25.7 °F 12.7 °F 21.6 °F 84% 30.08 in 10.0 mi NNW 17.3 mph 24.2 mph N/A   Overcast
3:15 AM 25.7 °F 12.7 °F 21.6 °F 84% 30.08 in 10.0 mi NNW 17.3 mph 24.2 mph N/A   Overcast
3:35 AM 25.7 °F 13.5 °F 21.6 °F 84% 30.09 in 10.0 mi NNW 15.0 mph 18.4 mph N/A   Overcast
3:55 AM 25.7 °F 13.1 °F 21.9 °F 86% 30.11 in 10.0 mi NNW 16.1 mph - N/A   Overcast
4:15 AM 25.5 °F 12.0 °F 21.7 °F 86% 30.11 in 10.0 mi NNW 18.4 mph 24.2 mph N/A   Overcast
4:35 AM 25.5 °F 12.0 °F 21.7 °F 86% 30.13 in 10.0 mi NNW 18.4 mph 23.0 mph N/A   Overcast
4:55 AM 25.5 °F 12.0 °F 21.7 °F 86% 30.14 in 10.0 mi NNW 18.4 mph 24.2 mph N/A   Overcast
5:15 AM 25.3 °F 13.1 °F 21.6 °F 86% 30.14 in 10.0 mi NNW 15.0 mph - N/A   Overcast
5:35 AM 24.8 °F 11.9 °F 21.2 °F 86% 30.14 in 10.0 mi NNW 16.1 mph - N/A   Overcast
5:55 AM 25.5 °F 13.3 °F 21.7 °F 86% 30.15 in 10.0 mi North 15.0 mph - N/A   Overcast
6:15 AM 25.5 °F 13.3 °F 21.7 °F 86% 30.15 in 10.0 mi NNW 15.0 mph - N/A   Overcast
6:35 AM 25.7 °F 14.6 °F 21.9 °F 86% 30.16 in 10.0 mi NNW 12.7 mph - N/A   Overcast
6:55 AM 25.7 °F 15.7 °F 21.9 °F 86% 30.17 in 10.0 mi NNW 10.4 mph 19.6 mph N/A   Overcast
7:15 AM 25.3 °F 14.7 °F 21.6 °F 86% 30.19 in 5.0 mi NW 11.5 mph - N/A   Overcast
7:35 AM 24.8 °F 12.9 °F 21.2 °F 86% 30.20 in 3.0 mi NW 13.8 mph - N/A   Overcast
7:55 AM 24.8 °F 12.9 °F 21.2 °F 86% 30.20 in 3.0 mi NW 13.8 mph 23.0 mph N/A   Overcast
8:15 AM 25.0 °F 13.6 °F 21.4 °F 86% 30.21 in 5.0 mi NW 12.7 mph 16.1 mph N/A   Overcast
8:35 AM 25.3 °F 13.6 °F 21.7 °F 86% 30.21 in 7.0 mi NNW 13.8 mph 17.3 mph N/A   Overcast
8:55 AM 25.3 °F 14.7 °F 21.6 °F 86% 30.22 in 10.0 mi NW 11.5 mph - N/A   Overcast
9:15 AM 25.7 °F 14.6 °F 22.1 °F 86% 30.22 in 10.0 mi NW 12.7 mph 19.6 mph N/A   Overcast
9:35 AM 26.6 °F 15.2 °F 22.5 °F 84% 30.23 in 10.0 mi NW 13.8 mph - N/A   Overcast
9:55 AM 26.6 °F 16.8 °F 22.5 °F 84% 30.24 in 10.0 mi NW 10.4 mph 19.6 mph N/A   Overcast
10:15 AM 27.0 °F 15.6 °F 22.6 °F 84% 30.24 in 10.0 mi NNW 13.8 mph - N/A   Overcast
10:35 AM 27.3 °F 16.6 °F 22.8 °F 83% 30.24 in 10.0 mi NW 12.7 mph - N/A   Overcast
10:55 AM 27.9 °F 16.8 °F 23.0 °F 82% 30.24 in 10.0 mi NW 13.8 mph 20.7 mph N/A   Overcast
11:15 AM 27.9 °F 16.3 °F 23.0 °F 82% 30.24 in 10.0 mi NW 15.0 mph 18.4 mph N/A   Overcast
11:35 AM 28.0 °F 17.0 °F 23.0 °F 81% 30.25 in 10.0 mi NW 13.8 mph 19.6 mph N/A   Overcast
11:55 AM 28.4 °F 18.0 °F 23.4 °F 81% 30.25 in 10.0 mi NW 12.7 mph - N/A   Overcast
12:15 PM 28.4 °F 19.1 °F 23.7 °F 83% 30.24 in 10.0 mi NW 10.4 mph 16.1 mph N/A   Overcast
12:35 PM 28.4 °F 18.0 °F 23.4 °F 81% 30.24 in 10.0 mi NW 12.7 mph - N/A   Overcast
12:55 PM 28.8 °F 19.0 °F 23.9 °F 82% 30.24 in 10.0 mi NW 11.5 mph 16.1 mph N/A   Overcast
1:15 PM 29.1 °F 18.9 °F 23.9 °F 81% 30.23 in 10.0 mi NW 12.7 mph - N/A   Overcast
1:35 PM 29.1 °F 17.5 °F 24.1 °F 81% 30.24 in 10.0 mi WNW 16.1 mph - N/A   Overcast
1:55 PM 28.6 °F 16.4 °F 23.9 °F 83% 30.24 in 10.0 mi WNW 17.3 mph - N/A   Overcast
2:15 PM 29.1 °F 18.4 °F 23.9 °F 81% 30.24 in 10.0 mi WNW 13.8 mph - N/A   Overcast
2:35 PM 29.3 °F 19.1 °F 24.1 °F 81% 30.24 in 10.0 mi WNW 12.7 mph 17.3 mph N/A   Overcast
2:55 PM 29.8 °F 19.8 °F 24.4 °F 80% 30.24 in 10.0 mi WNW 12.7 mph - N/A   Overcast
3:15 PM 30.2 °F 20.2 °F 24.4 °F 79% 30.24 in 10.0 mi WNW 12.7 mph 18.4 mph N/A   Overcast
3:35 PM 30.2 °F 20.2 °F 24.8 °F 80% 30.25 in 10.0 mi WNW 12.7 mph - N/A   Overcast
3:55 PM 30.2 °F 19.8 °F 24.8 °F 80% 30.26 in 10.0 mi WNW 13.8 mph - N/A   Overcast
4:15 PM 30.2 °F 19.8 °F 24.8 °F 80% 30.27 in 10.0 mi WNW 13.8 mph - N/A   Overcast
4:35 PM 30.0 °F 21.1 °F 24.8 °F 81% 30.27 in 10.0 mi WNW 10.4 mph - N/A   Overcast
4:55 PM 29.7 °F 20.1 °F 24.4 °F 81% 30.26 in 10.0 mi WNW 11.5 mph - N/A   Overcast
5:15 PM 29.3 °F 20.2 °F 23.9 °F 80% 30.27 in 10.0 mi WNW 10.4 mph - N/A   Overcast
5:35 PM 29.3 °F 20.2 °F 23.9 °F 80% 30.27 in 10.0 mi WNW 10.4 mph - N/A   Overcast
5:55 PM 29.1 °F 20.0 °F 23.9 °F 81% 30.27 in 10.0 mi WNW 10.4 mph - N/A   Overcast
6:15 PM 29.1 °F 19.4 °F 23.9 °F 81% 30.28 in 10.0 mi WNW 11.5 mph - N/A   Overcast
6:35 PM 28.8 °F 19.0 °F 23.7 °F 81% 30.28 in 10.0 mi West 11.5 mph - N/A   Overcast
6:55 PM 28.4 °F 18.0 °F 23.4 °F 81% 30.29 in 10.0 mi WNW 12.7 mph - N/A   Overcast
7:15 PM 28.2 °F 18.9 °F 23.0 °F 81% 30.29 in 10.0 mi WNW 10.4 mph - N/A   Overcast
7:35 PM 27.9 °F 19.1 °F 23.0 °F 82% 30.29 in 10.0 mi WNW 9.2 mph - N/A   Overcast
7:55 PM 27.9 °F 17.8 °F 23.5 °F 84% 30.29 in 10.0 mi WNW 11.5 mph - N/A   Overcast
8:15 PM 27.9 °F 17.8 °F 23.5 °F 84% 30.29 in 10.0 mi West 11.5 mph - N/A   Overcast
8:35 PM 27.1 °F 17.5 °F 22.8 °F 84% 30.29 in 10.0 mi WNW 10.4 mph - N/A   Overcast
8:55 PM 26.6 °F 16.8 °F 22.5 °F 84% 30.29 in 10.0 mi WNW 10.4 mph - N/A   Overcast
9:15 PM 26.6 °F 17.5 °F 22.3 °F 84% 30.29 in 10.0 mi WNW 9.2 mph - N/A   Overcast
9:35 PM 26.6 °F 16.8 °F 22.1 °F 83% 30.29 in 10.0 mi WNW 10.4 mph - N/A   Overcast
9:55 PM 26.6 °F 16.8 °F 22.1 °F 83% 30.29 in 10.0 mi WNW 10.4 mph - N/A   Overcast
10:15 PM 26.6 °F 16.8 °F 22.1 °F 83% 30.30 in 10.0 mi WNW 10.4 mph - N/A   Overcast
10:35 PM 26.6 °F 16.8 °F 22.1 °F 83% 30.30 in 10.0 mi WNW 10.4 mph - N/A   Overcast
10:55 PM 26.2 °F 17.1 °F 21.9 °F 84% 30.29 in 10.0 mi WNW 9.2 mph - N/A   Overcast
11:15 PM 26.1 °F 17.6 °F 21.7 °F 84% 30.29 in 10.0 mi WNW 8.1 mph - N/A   Overcast
11:35 PM 25.7 °F 16.4 °F 21.7 °F 85% 30.29 in 10.0 mi WNW 9.2 mph - N/A   Overcast
11:55 PM 25.7 °F 16.4 °F 21.6 °F 84% 30.29 in 10.0 mi WNW 9.2 mph - N/A   Overcast